Location: Unspecified
(0.0000°N, 0.0000°E)
Time: 20:03:58
(UTC+00:00)

ISS - Pass Details

Date: 22 January 2018
Orbit: 402 x 407 km, 51.6° (Epoch: 17 January)

Event Time Altitude Azimuth Distance (km) Brightness Sun altitude
Exits shadow 04:49:48 10° 15° (NNE) 1,431 -1.1 -19.2°
Maximum altitude 04:51:48 16° 54° (NE) 1,153 -1.1 -18.7°
Drops below altitude 10° 04:53:53 10° 94° (E) 1,455 0.1 -18.2°
Sets 04:56:32 0° 117° (ESE) 2,318 1.7 -17.6°
